Location: Alsip
(41.6689°N, 87.7387°W)
Time: 20:57:20
(UTC+00:00)

Cosmos 1048 Rocket - Pass Details

Date: 26 October 2020
Orbit: 743 x 792 km, 74.0° (Epoch: 03 December)

Event Time Altitude Azimuth Distance (km) Brightness Sun altitude
Exits shadow 10:56:12 11° 323° (NW) 2,311 6.1 -15.6°
Drops below altitude 10° 10:56:37 10° 327° (NNW) 2,348 6.2 -15.5°
Sets 11:01:08 0° 2° (N) 3,292 7.3 -14.7°
